Flight Track Log - Related Links

Times and Time Zones

All times are in EDT time to prevent confusion due to time zone crossing. See the N8347C flight status page for this flight to view local times or setup timezone preferences in your user account.

Time Position Orientation Groundspeed Altitude Reporting Facility
EDT Latitude Longitude Course Direction KTS MPH feet Rate Location/Type
Wed 03:03:08 PM 46.6447 -92.5831 224° Southwest 100 115 4,000  Level Minneapolis Center
Wed 03:04:10 PM 46.6231 -92.6194 229° Southwest 106 122 4,000  Level Minneapolis Center
Wed 03:05:12 PM 46.5989 -92.6556 226° Southwest 114 131 4,000  Level Minneapolis Center
Wed 03:06:14 PM 46.5733 -92.6875 221° Southwest 119 137 4,000  Level Minneapolis Center
Wed 03:07:00 PM 46.5689 -92.6672 224° Southwest  Level FlightAware Approximate
Wed 03:07:16 PM 46.5442 -92.7256 222° Southwest 120 138 4,000  Level Minneapolis Center
Wed 03:08:00 PM 46.5480 -92.6966 224° Southwest  Level FlightAware Approximate
Wed 03:08:18 PM 46.5178 -92.7597 222° Southwest 121 139 4,000  Level Minneapolis Center
Wed 03:09:20 PM 46.4928 -92.7931 223° Southwest 122 140 4,000  Level Minneapolis Center
Wed 03:10:23 PM 46.4694 -92.8258 224° Southwest 121 139 4,000 48 Level Minneapolis Center
Wed 03:11:25 PM 46.4458 -92.8569 222° Southwest 118 136 4,100 97 Climbing Minneapolis Center
Wed 03:12:27 PM 46.4217 -92.8897 223° Southwest 118 136 4,200 -48 Climbing Minneapolis Center
Wed 03:13:29 PM 46.3917 -92.9325 225° Southwest 121 139 4,000 -97 Descending Minneapolis Center
Wed 03:14:31 PM 46.3658 -92.9661 222° Southwest 124 143 4,000  Level Minneapolis Center
Wed 03:15:33 PM 46.3417 -92.9972 222° Southwest 122 140 4,000  Level Minneapolis Center
Wed 03:16:35 PM 46.3172 -93.0286 222° Southwest 119 137 4,000  Level Minneapolis Center
Wed 03:17:37 PM 46.2925 -93.0619 223° Southwest 120 138 4,000  Level Minneapolis Center
Wed 03:18:39 PM 46.2633 -93.1017 223° Southwest 121 139 4,000 48 Level Minneapolis Center
Wed 03:19:41 PM 46.2397 -93.1342 224° Southwest 119 137 4,100  Climbing Minneapolis Center
Wed 03:20:43 PM 46.2147 -93.1667 222° Southwest 120 138 4,000 -48 Descending Minneapolis Center
Wed 03:21:45 PM 46.1878 -93.2014 222° Southwest 123 142 4,000  Level Minneapolis Center
Wed 03:22:47 PM 46.1625 -93.2406 227° Southwest 127 146 4,000  Level Minneapolis Center
Wed 03:23:49 PM 46.1381 -93.2711 221° Southwest 124 143 4,000  Level Minneapolis Center
Wed 03:24:51 PM 46.1131 -93.3042 223° Southwest 122 140 4,000  Level Minneapolis Center
Wed 03:25:53 PM 46.0897 -93.3372 225° Southwest 120 138 4,000  Level Minneapolis Center
Wed 03:26:55 PM 46.0608 -93.3761 223° Southwest 119 137 4,000 48 Level Minneapolis Center
Wed 03:27:57 PM 46.0347 -93.4094 222° Southwest 122 140 4,100  Climbing Minneapolis Center
Wed 03:28:59 PM 46.0094 -93.4419 222° Southwest 123 142 4,000  Descending Minneapolis Center
Wed 03:30:14 PM 45.9769 -93.4878 224° Southwest 122 140 4,100  Climbing Minneapolis Center
Wed 03:31:16 PM 45.9528 -93.5219 225° Southwest 127 146 4,000 -48 Descending Minneapolis Center
Wed 03:32:18 PM 45.9219 -93.5642 224° Southwest 128 147 4,000  Level Minneapolis Center
Wed 03:33:20 PM 45.8975 -93.5989 225° Southwest 128 147 4,000  Level Minneapolis Center
Wed 03:34:21 PM 45.8725 -93.6333 224° Southwest 126 145 4,000  Level Minneapolis Center
Wed 03:35:23 PM 45.8467 -93.6653 221° Southwest 125 144 4,000  Level Minneapolis Center
Wed 03:36:25 PM 45.8214 -93.6947 219° Southwest 123 142 4,000  Level Minneapolis Center
Wed 03:37:27 PM 45.7944 -93.7353 226° Southwest 129 148 4,000  Level Minneapolis Center
Wed 03:38:29 PM 45.7650 -93.7722 221° Southwest 124 143 4,000  Level Minneapolis Center
Wed 03:39:31 PM 45.7394 -93.8050 222° Southwest 125 144 4,000 -97 Level Minneapolis Center
Wed 03:40:33 PM 45.7147 -93.8369 222° Southwest 122 140 3,800 -242 Descending Minneapolis Center
Wed 03:41:35 PM 45.6878 -93.8694 220° Southwest 125 144 3,500 -97 Descending Minneapolis Center
Wed 03:42:37 PM 45.6642 -93.9014 223° Southwest 119 137 3,600  Climbing Minneapolis Center
Wed 03:43:39 PM 45.6386 -93.9306 219° Southwest 119 137 3,500 -435 Descending Minneapolis Center
Wed 03:44:41 PM 45.6089 -93.9689 222° Southwest 119 137 2,700 -435 Descending Minneapolis Center
Wed 03:45:43 PM 45.5847 -94.0000 222° Southwest 119 137 2,600 -97 Descending Minneapolis Center
Wed 03:47:00 PM 45.5492 -94.0341 215° Southwest  Level FlightAware Approximate
Wed 03:54:00 PM 45.5333 -94.0500 215° Southwest  Level FlightAware Approximate
Wed 03:55:00 PM 45.5466 -94.0599 215° Southwest  Level Estimated

Login

Don't have an account? Register now (free) for customized features, flight alerts, and more!